Weather History for KSBM - December, 2013

Change the Weather History Date:

Friday, December 13, 2013

  Actual Average Record
Temperature  
Mean Temperature 20 °F -  
Max Temperature 23 °F 35 °F 52 °F (1991)
Min Temperature 16 °F 20 °F -9 °F (2000)
Degree Days  
Heating Degree Days 46    
Moisture  
Dew Point 12 °F    
Average Humidity 75    
Maximum Humidity 85    
Minimum Humidity 68    
Precipitation  
Precipitation 0.00 in - - ()
Sea Level Pressure  
Sea Level Pressure 30.23 in    
Wind  
Wind Speed 8 mph (North)    
Max Wind Speed 14 mph    
Max Gust Speed 18 mph    
Visibility 10 miles    
Events Snow    
Averages and records for this station are not official NWS values.
T = Trace of Precipitation, MM = Missing Value Source: NWS Daily Summary

Daily Weather History Graph

Daily Weather History Graph

Search for Another Location

Airport or City:

Trip Planner

Search our weather history database for the weather conditions in past years. The results will help you decide how hot, cold, wet, or windy it might be!

Date:

Astronomy

Dec. 13, 2013 Rise Set
Actual Time 7:17 AM CST 4:14 PM CST
Civil Twilight 6:44 AM CST 4:47 PM CST
Nautical Twilight 6:07 AM CST 5:23 PM CST
Astronomical Twilight 5:32 AM CST 5:58 PM CST
Moon 2:01 PM CST (12/13) 3:34 AM CST (12/13)
Length of Visible Light 10h 03m
Length of Day
8h 57m
Waxing Gibbous, 88% of the Moon is Illuminated
Dec 13
Waxing Gibbous
Dec 17
Full
Dec 25
Last Quarter
Jan 1
New
Jan 7
First Quarter

Hourly Weather History & Observations

Time (CST) Temp. Windchill Dew Point Humidity Pressure Visibility Wind Dir Wind Speed Gust Speed Precip Events Conditions
12:53 AM 18.0 °F 7.7 °F 10.0 °F 71% 30.17 in 10.0 mi West 8.1 mph - N/A   Overcast
1:53 AM 18.0 °F 7.7 °F 10.9 °F 74% 30.19 in 10.0 mi WNW 8.1 mph - N/A   Overcast
2:53 AM 18.0 °F 11.1 °F 10.9 °F 74% 30.18 in 10.0 mi NW 4.6 mph - N/A   Overcast
3:53 AM 19.0 °F 12.3 °F 12.0 °F 74% 30.19 in 10.0 mi NNW 4.6 mph - N/A   Overcast
4:53 AM 19.0 °F 12.3 °F 12.0 °F 74% 30.18 in 10.0 mi North 4.6 mph - N/A   Overcast
5:53 AM 18.0 °F 12.7 °F 9.0 °F 68% 30.21 in 10.0 mi North 3.5 mph - N/A   Overcast
6:53 AM 17.1 °F 10.0 °F 9.0 °F 71% 30.23 in 10.0 mi North 4.6 mph - N/A   Mostly Cloudy
7:53 AM 16.0 °F 4.4 °F 8.1 °F 71% 30.23 in 10.0 mi NNE 9.2 mph - N/A   Overcast
8:53 AM 17.1 °F 10.0 °F 10.0 °F 74% 30.25 in 10.0 mi NNE 4.6 mph - N/A   Overcast
9:53 AM 18.0 °F 9.8 °F 10.9 °F 74% 30.25 in 10.0 mi North 5.8 mph - N/A   Overcast
10:53 AM 19.0 °F 9.0 °F 12.0 °F 74% 30.25 in 10.0 mi North 8.1 mph - N/A   Overcast
11:22 AM 19.0 °F 6.8 °F 12.0 °F 74% 30.20 in 10.0 mi NNE 11.5 mph - N/A   Overcast
11:53 AM 19.0 °F 5.6 °F 12.0 °F 74% 30.23 in 10.0 mi NNE 13.8 mph - N/A   Overcast
12:04 PM 19.0 °F 6.1 °F 12.0 °F 74% 30.19 in 10.0 mi NNE 12.7 mph - N/A   Overcast
12:53 PM 18.0 °F 6.1 °F 12.0 °F 78% 30.24 in 8.0 mi NNE 10.4 mph - N/A   Overcast
1:53 PM 18.0 °F 6.9 °F 10.9 °F 74% 30.24 in 10.0 mi NNE 9.2 mph 18.4 mph N/A   Overcast
2:53 PM 18.0 °F 5.4 °F 10.0 °F 71% 30.23 in 9.0 mi North 11.5 mph - 0.00 in   Overcast
3:53 PM 17.1 °F 4.3 °F 10.9 °F 77% 30.23 in 5.0 mi North 11.5 mph - 0.00 in Snow Light Snow
4:53 PM 17.1 °F 5.0 °F 12.0 °F 81% 30.25 in 9.0 mi North 10.4 mph - 0.00 in   Overcast
5:53 PM 17.1 °F 4.3 °F 10.9 °F 77% 30.25 in 10.0 mi North 11.5 mph - N/A   Overcast
6:53 PM 17.1 °F 5.0 °F 10.9 °F 77% 30.27 in 10.0 mi North 10.4 mph - N/A   Overcast
7:53 PM 17.1 °F 5.0 °F 12.0 °F 81% 30.28 in 9.0 mi North 10.4 mph - 0.00 in Snow Light Snow
8:53 PM 18.0 °F 4.8 °F 14.0 °F 84% 30.27 in 10.0 mi North 12.7 mph - 0.00 in   Overcast
9:53 PM 19.0 °F 10.0 °F 15.1 °F 85% 30.28 in 10.0 mi North 6.9 mph - N/A   Overcast
10:53 PM 23.0 °F 12.4 °F 17.1 °F 78% 30.27 in 10.0 mi ENE 10.4 mph - N/A   Overcast
11:53 PM 23.0 °F 10.6 °F 17.1 °F 78% 30.26 in 10.0 mi ENE 13.8 mph - N/A   Overcast